Regional Weather Roundup
Issued by NWS Mt. Holly, NJ

Home | Current Version | Previous Version | Text Only | Print | Product List | Glossary On
Versions: 1 2 3 4 5 6 7 8 9 10 11 12 13 14 15 16 17 18 19 20 21 22 23 24 25 26 27 28 29 30 31 32 33 34 35 36 37 38 39 40 41 42 43 44 45 46 47 48 49 50
192
ASUS41 KPHI 130512
RWRPHI

REGIONAL WEATHER ROUNDUP
NATIONAL WEATHER SERVICE MOUNT HOLLY NJ
1200 AM EST SAT FEB 13 2016

NOTE:  "FAIR" INDICATES FEW OR NO CLOUDS BELOW 12,000 FEET WITH NO
SIGNIFICANT WEATHER AND/OR OBSTRUCTIONS TO VISIBILITY.

 * = STATION DOES NOT REPORT PRECIPITATION (E.G. RAIN, SNOW, ETC.)
        OR FOG.

NJZ015>026-130600-
SOUTHERN NEW JERSEY

CITY           SKY/WX    TMP DP  RH WIND       PRES   REMARKS
POMONA         MOCLDY    21  18  88 W5        29.97F WCI  15
WILDWOOD*        N/A    N/A N/A N/A MISG        N/A
MILLVILLE      CLOUDY    19  17  92 CALM      29.98S
WRIGHTSTOWN    CLOUDY    19  19 100 W7        29.93F WCI  10
MOUNT HOLLY    CLOUDY    20  17  88 SW5       29.97F WCI  13
TRENTON        CLOUDY    21  14  74 W5        29.95S HAZE    WCI  15

$$
NJZ001>014-130600-
NORTHERN NEW JERSEY

CITY           SKY/WX    TMP DP  RH WIND       PRES   REMARKS
SUSSEX         LGT SNOW  18  12  77 SW6       29.89F WCI  10
ANDOVER*         N/A     18  13  80 SW3       29.90F
MORRISTOWN     CLOUDY    21   9  58 W7        29.93F WCI  13
NEWARK         CLOUDY    22   9  57 W10       29.94F WCI  11
TETERBORO      CLOUDY    22   6  50 W7        29.93F WCI  13
CALDWELL       CLOUDY    21   7  54 VRB6      29.93F WCI  13
SOMERVILLE     CLOUDY    20  11  68 CALM      29.93F
ALLAIRE*       CLOUDY    19   9  63 W6        29.93F WCI  11
TOMS RIVER*    CLOUDY    19  14  79 W5        29.96F WCI  13

$$
PAZ043-044-047-054-055-060>062-066>071-130600-
EASTERN PENNSYLVANIA

CITY           SKY/WX    TMP DP  RH WIND       PRES   REMARKS
PHILADELPHIA   CLOUDY    24  15  68 W10       29.98F WCI  14
NORTH PHILA    CLOUDY    23  14  68 W10       29.97F WCI  12
BLUE BELL*       N/A     21  14  73 W6        29.94F WCI  14
DOYLESTOWN     CLOUDY    18  13  80 SW8       29.93F WCI   8
QUAKERTOWN*    PTCLDY    18  14  86 W5        29.93F WCI  11
PERKASIE*      FLURRIES  18  14  86 W7        29.93F WCI   8
POTTSTOWN      CLOUDY    19  14  81 VRB3      29.96F
LANCASTER      CLOUDY    18  16  92 SW5       29.95F WCI  11
COATESVILLE    PTCLDY    19  19 100 CALM      29.94F
READING        CLOUDY    19  15  84 SW5       29.94F WCI  12
ALLENTOWN      CLOUDY    20  14  77 W8        29.92F WCI  10
MOUNT POCONO   LGT SNOW  13   8  81 W9        29.77F WCI   1
HAZLETON       LGT SNOW  18  12  79 W6        29.85S WCI   9
LEHIGHTON      LGT SNOW  19  16  86 CALM      29.92F
WILKES BARRE   LGT SNOW  18  12  77 SW7       29.85F WCI   9

$$
DEZALL-MDZ008-012-015-019-020-130600-
DELAWARE AND EASTERN MARYLAND

CITY           SKY/WX    TMP DP  RH WIND       PRES   REMARKS
WILMINGTON     LGT SNOW  22  17  81 W8        29.99S WCI  12
DOVER          PTCLDY    23  21  92 W2        29.97F
GEORGETOWN     MOCLDY    22  20  92 SW3       29.99F
EASTON         PTCLDY    28  19  68 NW10      30.03S WCI  19
PATUXENT       CLOUDY    27  19  72 W6        30.01S WCI  20
OCEAN CITY     CLOUDY    23  19  85 W3        30.00S
WALLOPS ISLAND MOCLDY    23  20  88 NW3       30.00F
CAMBRIDGE      MOCLDY    25  19  80 CALM      30.00R
SALISBURY      CLOUDY    23  19  85 CALM      29.99F

$$
PAZ001-021-NYZ056-072-MDZ011-DCZ001-130600-
OTHER NEARBY LOCATIONS

CITY           SKY/WX    TMP DP  RH WIND       PRES   REMARKS
HARRISBURG     MOCLDY    21  15  78 CALM      29.95F
STATE COLLEGE  CLOUDY    18  11  76 W17       29.87S WCI   2
WILLIAMSPORT   CLOUDY    20  11  68 W9        29.89F WCI   9
BINGHAMTON     PTCLDY    12   8  84 SW8       29.76F WCI   0
NEW YORK CITY  CLOUDY    23   7  50 CALM      29.94F
BALTIMORE      CLOUDY    23  17  78 W3        29.99F
WASHINGTON DC  CLOUDY    28  17  63 W6        30.02S WCI  22

$$




USA.gov is the U.S. government's official web portal to all federal, state and local government web resources and services.